AirNav   Air Wisconsin pilot careers
 
 1633 users online  

KLHM Lincoln Regional Airport/Karl Harder Field
Lincoln, California, USA

GOING TO LINCOLN?


FAA INFORMATION EFFECTIVE 21 JUNE 2018

Location

FAA Identifier: LHM
Lat/Long: 38-54-33.0000N / 121-21-04.8000W
38-54.550000N / 121-21.080000W
38.9091667 / -121.3513333
(estimated)
Elevation: 121.4 ft. / 37.0 m (surveyed)
Variation: 14E (2010)
From city: 3 miles W of LINCOLN, CA
Time zone: UTC -7 (UTC -8 during Standard Time)
Zip code: 95648

Airport Operations

Airport use: Open to the public
Activation date: 07/1944
Control tower: no
ARTCC: OAKLAND CENTER
FSS: RANCHO MURIETA FLIGHT SERVICE STATION
NOTAMs facility: RIU (NOTAM-D service available)
Attendance: MON-FRI 0600-1700
Pattern altitude: 1121.4 ft. MSL
Wind indicator: lighted
Segmented circle: yes
Lights: ACTVT MALSR RWY 15; MIRL RWY 15/33, HELI PERIMETER LGTS - CTAF. PAPI RWYS 15 & 33 TURNED ON DURING DALGT HRS, AFTER DARK ACTVT - CTAF.
Beacon: white-green (lighted land airport)
Operates sunset to sunrise.

Airport Communications

CTAF/UNICOM: 123.0
WX AWOS-3: 124.25 (916-645-0698)
NORCAL APPROACH: 125.4 [1530-0800Z++ MON-THU. 1530-0130Z++ FRI, 1800-0200Z++ SAT, 2100-0500Z++ SUN]
NORCAL DEPARTURE: 125.4 [1530-0800Z++ MON-THU. 1530-0130Z++ FRI, 1800-0200Z++ SAT, 2100-0500Z++ SUN]
WX AWOS-3 at AUN (13 nm E): 119.375 (530-888-8934)
WX AWOS-3 at MCC (15 nm S): 125.975 (916-641-1272)
WX ASOS at MYV (15 nm NW): 118.475 (530-742-0695)
WX ASOS at SMF (17 nm SW): PHONE 916-649-3996

Nearby radio navigation aids

VOR radial/distance  VOR name  Freq  Var
MCCr353/14.7MC CLELLAN VOR/DME109.2017E
MYVr122/15.4MARYSVILLE VOR/DME110.8016E
SACr002/29.5SACRAMENTO VORTAC115.2017E
HNWr274/30.2HANGTOWN VOR/DME115.5017E
ILAr089/33.0WILLIAMS VORTAC114.4018E

Airport Services

Fuel available: 100LL JET-A
FOR JET A AND 100LL FUEL TRUCK CTC (916) 257-4854, 0600-1700. SELF SVC FUEL AVBL 24 HRS.
Parking: tiedowns
Airframe service: MAJOR
Powerplant service: MAJOR
Bottled oxygen: NONE
Bulk oxygen: NONE

Runway Information

Runway 15/33

Dimensions: 6001 x 100 ft. / 1829 x 30 m
Surface: asphalt, in good condition
Weight bearing capacity: 
Single wheel: 30.0
Double wheel: 60.0
Runway edge lights: medium intensity
RUNWAY 15  RUNWAY 33
Latitude: 38-55.027855N38-54.071655N
Longitude: 121-21.240792W121-20.919870W
Elevation: 119.8 ft.119.7 ft.
Gradient: 0.1%0.1%
Traffic pattern: leftleft
Runway heading: 151 magnetic, 165 true331 magnetic, 345 true
Markings: precision, in good conditionnonprecision, in good condition
Visual slope indicator: 4-light PAPI on left (3.00 degrees glide path)4-light PAPI on left (3.00 degrees glide path)
Approach lights: MALSR: 1,400 foot medium intensity approach lighting system with runway alignment indicator lights
Runway end identifier lights: nono
Touchdown point: yes, no lightsyes, no lights
Instrument approach: ILS/DME
Obstructions: 25 ft. tree, 1000 ft. from runway, 32:1 slope to clear40 ft. trees, 1600 ft. from runway, 35:1 slope to clear

Helipad H1

Dimensions: 60 x 60 ft. / 18 x 18 m
Surface: concrete
Runway edge lights: PERI
Latitude: 38-54.208117N
Longitude: 121-20.726117W
Elevation: 118.0 ft.
Traffic pattern: leftleft

Airport Ownership and Management from official FAA records

Ownership: Publicly-owned
Owner: CITY OF LINCOLN
600 6TH STREET
LINCOLN, CA 95648
Phone (916) 434-2450
Manager: TONY LATTUCA
1480 FLIGHTLINE DR.
LINCOLN, CA 95648
Phone 916-645-3443
AIRPORT@CI.LINCOLN.CA.US, JHANSON@CI.LINCOLN.CA.US

Airport Operational Statistics

Aircraft based on the field: 125
Single engine airplanes: 113
Multi engine airplanes: 9
Helicopters: 3
    
Aircraft operations: avg 204/day *
50% local general aviation
46% transient general aviation
4% air taxi
* for 12-month period ending 31 December 2016

Additional Remarks

A30A-15 RY 15 CALM WND RY.
FOR CD CTC NORCAL APCH AT 916-361-6874.
PWRD PRCHT ACT SW QUAD OF ARPT.

Instrument Procedures

NOTE: All procedures below are presented as PDF files. If you need a reader for these files, you should download the free Adobe Reader.

NOT FOR NAVIGATION. Please procure official charts for flight.
FAA instrument procedures published for use from 21 June 2018 at 0901Z to 19 July 2018 at 0900Z.

 
IAPs - Instrument Approach Procedures
ILS OR LOC RWY 15   download (251KB)
RNAV (GPS) RWY 15   download (208KB)
RNAV (GPS) RWY 33   download (182KB)
NOTE: Special Alternate Minimums apply   download (19KB)
NOTE: Special Take-Off Minimums/Departure Procedures apply   download (128KB)

Other nearby airports with instrument procedures:

KAUN - Auburn Municipal Airport (13 nm E)
KBAB - Beale Air Force Base (14 nm N)
KMCC - Mc Clellan Airfield (15 nm S)
KMYV - Yuba County Airport (15 nm NW)
KSMF - Sacramento International Airport (17 nm SW)
 
Loc | Ops | Rwys | IFR | FBO | Links
Com | Nav | Svcs | Stats | Notes


 
Area around KLHM (Lincoln Regional Airport/Karl Harder Field)
 
Road maps at: MapQuest Bing Google
 
Aerial photo
WARNING: Photo may not be current or correct
Aerial photo of KLHM (Lincoln Regional Airport/Karl Harder Field)
Photo by Rockne Green
Photo taken 29-Sep-2009

Do you have a better or more recent aerial photo of Lincoln Regional Airport/Karl Harder Field that you would like to share? If so, please send us your photo.

 
Sectional chart

 
Airport distance calculator
Flying to Lincoln Regional Airport/Karl Harder Field? Find the distance to fly.

From to KLHM

Sunrise and sunset
Times for 17-Jul-2018
 Local
(UTC-7)
 Zulu
(UTC)
Morning civil twilight05:2412:24
Sunrise05:5512:55
Sunset20:2803:28
Evening civil twilight20:5903:59

Current date and time
Zulu (UTC)  17-Jul-2018 19:15:10
Local (UTC-7)  17-Jul-2018 12:15:10
 
METAR
KLHM 171855Z AUTO 27008KT 10SM CLR 31/16 A2993 RMK AO1
KAUN 
13nm E 
171855Z AUTO 23007KT 10SM CLR 33/14 A3002 RMK AO1
KBAB 
14nm N 
171858Z AUTO 30005KT 10SM CLR 32/16 A2992 RMK AO2 SLP134 T03220156 $
KMCC 
15nm S 
171855Z AUTO 21006KT 10SM CLR 29/12 A2996 RMK AO2
KMYV 
15nm NW 
171853Z AUTO 29005KT 10SM CLR 32/17 A2994 RMK AO2 SLP142 T03220167
KSMF 
17nm SW 
171853Z 00000KT 10SM CLR 28/14 A2994 RMK AO2 SLP138 T02830139
TAF
KBAB 
14nm N 
171105Z 1711/1817 15006KT 9999 SKC QNH2988INS BECMG 1717/1718 22009KT 9999 SKC QNH2989INS BECMG 1802/1803 VRB06KT 9999 SKC QNH2991INS WND 22009KT AFT 17 TX38/1723Z TN18/1712Z
KMCC 
15nm S 
171720Z 1718/1818 22006KT P6SM SKC FM180300 16010KT P6SM SKC
KSMF 
17nm SW 
171720Z 1718/1818 21010KT P6SM SKC FM180000 17010KT P6SM SKC
NOTAMs
Click for the latest NOTAMs
NOTAMs are issued by the DoD/FAA and will open in a separate window not controlled by AirNav.

 

 
 

FBO, Fuel Providers, and Aircraft Ground Support

  
 Business Name 
 
 Contact 
 
 Services / Description 
 
Fuel Prices
 
Comments
  
Lincoln Regional Airport/Karl Harder Field 916-645-3443
[web site]
[email]
Airport management, Aviation fuel, Aircraft parking (ramp or tiedown), Hangar leasing / sales, Passenger terminal and lounge, Rental cars delivered, ...
 
Crew car   Avis   Hertz   Wireless Internet Access (WiFi)   Wheelchair Accessible  
 
More info about Lincoln Regional Airport/Karl Harder Field
EPIC
100LL Jet A
FS $4.85 $5.01 
SS $4.55 $4.96 
 Updated 03-Jul-2018
 
   write
FS=Full service
SS=Self service
Update Fuel Prices
 

Aviation Businesses, Services, and Facilities

  
 Business Name 
 
 Contact 
 
 Services / Description 
 
Distance
 
Comments
  
Crosswind Properties, LLC 415-899-9908
[web site]
[email]
Hangars, Hangar leasing / sales

More info about Crosswind Properties, LLC
on airport  
   write
Lincoln Skyways 916-645-3449 Aircraft maintenance
 
Cessna Service Center  
 
More info about Lincoln Skyways
on airport  
   1 read write
NorCal Flight Center 916-794-1359
[web site]
[email]
Pilot school (FAR Part 141), Flight training, Aircraft rental, Aircraft cleaning / washing / detailing, Aircraft parts, Aviation accessories, ...
 
CATS Testing Center  
 
More info about NorCal Flight Center
on airport  
   2 read write
Kracon Aircraft Refinishing 916-645-1614
no information available

If you are affiliated with Kracon Aircraft Refinishing and would like to show here your services, contact info, web link, logo, and more, click here
on airport  
   1 read write
 

Would you like to see your business listed on this page?

 If your business provides an interesting product or service to pilots, flight crews, aircraft, or users of the Lincoln Regional Airport/Karl Harder Field, you should consider listing it here.  To start the listing process, click on the button below
 
Add a business
 

Other Pages about Lincoln Regional Airport/Karl Harder Field

lincolnca.gov/...
 
Update a link
 
Copyright © AirNav, LLC. All rights reserved. Privacy Policy  Contact